User: anonymous   Login
Location: ActonStarParty
(42.4766°N, 71.4538°W)
Time: 21:29:28
(UTC-04:00)
Language:

ITAMSAT 1 - Orbit

View from above orbital plane
View from above orbital plane
View from above satellite
View from above satellite

Ground track
Ground track

The orbit data is extracted from the following two-line orbital elements,

1 22826U 93061D   15211.90465935  .00000038  00000-0  31909-4 0  9997
2 22826 098.7057 162.1951 0009107 165.2673 194.8776 14.30212773139331
Epoch (UTC): 30 July 2015 21:42:42
Eccentricity: 0.0009107
inclination: 98.7057°
perigee height: 784 km
apogee height: 797 km
right ascension of ascending node: 162.1951°
argument of perigee: 165.2673°
revolutions per day: 14.30212773
mean anomaly at epoch: 194.8776°
orbit number at epoch: 13933

The dashed part of the orbit path shows where the satellite is in the earth's shadow,  

DLR